QPF
0.00 0.00 0.00 0.00 0.00 0.00 0.00 0.00 0.00 0.00 0.00 0.00 0.00 0.00 0.00 0.00 0.00 0.00 0.00 0.00 0.00 0.00 0.00 0.00 0.00 0.00 0.00 0.00 0.00 0.00 0.00 0.00 0.00 0.00 0.00 0.00 0.00 0.00 0.00 0.00 0.00 0.00 0.00 0.00
0.00 0.00 0.00 0.00 0.00 0.00 0.00 0.00 0.00 0.00 0.00 0.00 0.00 0.00 0.00 0.00 0.00 0.00 0.00 0.00 0.00 0.00 0.00 0.00 0.00 0.00 0.00 0.00 0.00 0.00 0.00 0.00 0.00 0.00 0.00 0.00 0.00 0.00 0.00 0.00 0.00 0.00 0.00 0.00
0.00 0.00 0.00 0.00 0.00 0.00 0.00 0.00 0.00 0.00 0.00 0.00 0.00 0.00 0.00 0.00 0.00 0.00 0.00 0.00 0.00 0.00 0.00 0.00 0.00 0.00 0.00 0.00 0.00 0.00 0.00 0.00 0.00 0.00 0.00 0.00 0.00 0.00 0.00 0.00 0.00 0.00 0.00 0.00
0.00 0.00 0.00 0.00 0.00 0.00 0.00 0.00 0.00 0.00 0.00 0.00 0.00 0.00 0.00 0.00 0.00 0.00 0.00 0.00 0.00 0.00 0.00 0.00 0.00 0.00 0.00 0.00 0.00 0.00 0.00 0.00 0.00 0.00 0.00 0.00 0.00 0.00 0.00 0.00 0.00 0.00 0.00 0.00
0.00 0.00 0.00 0.00 0.00 0.00 0.00 0.00 0.00 0.00 0.00 0.00 0.00 0.00 0.00 0.00 0.00 0.00 0.00 0.00 0.00 0.00 0.00 0.00 0.00 0.00 0.00 0.00 0.00 0.00 0.00 0.00 0.00 0.00 0.00 0.00 0.00 0.00 0.00 0.00 0.00 0.00 0.00 0.00
0.01 0.00 0.00 0.00 0.00 0.00 0.00 0.00 0.00 0.00 0.00 0.00 0.00 0.00 0.00 0.00 0.00 0.00 0.00 0.00 0.00 0.00 0.00 0.00 0.00 0.00 0.00 0.00 0.00 0.00 0.00 0.00 0.00 0.00 0.00 0.00 0.00 0.00 0.00 0.00 0.00 0.00 0.00 0.00
0.01 0.01 0.00 0.00 0.00 0.00 0.00 0.00 0.00 0.00 0.00 0.00 0.00 0.00 0.00 0.00 0.00 0.00 0.00 0.00 0.00 0.00 0.00 0.00 0.00 0.00 0.00 0.00 0.00 0.00 0.00 0.00 0.00 0.00 0.00 0.00 0.00 0.00 0.00 0.00 0.00 0.00 0.00 0.00
0.00 0.01 0.00 0.00 0.00 0.00 0.00 0.00 0.00 0.00 0.00 0.00 0.00 0.00 0.00 0.00 0.00 0.00 0.00 0.00 0.00 0.00 0.00 0.00 0.00 0.00 0.00 0.00 0.00 0.00 0.00 0.00 0.00 0.00 0.00 0.00 0.00 0.00 0.00 0.00 0.00 0.00 0.00 0.00
0.00 0.00 0.00 0.00 0.00 0.00 0.00 0.00 0.00 0.00 0.00 0.00 0.00 0.00 0.00 0.00 0.00 0.00 0.00 0.00 0.00 0.00 0.00 0.00 0.00 0.00 0.00 0.00 0.00 0.00 0.00 0.00 0.00 0.00 0.00 0.00 0.00 0.00 0.00 0.00 0.00 0.00 0.00 0.00
0.00 0.00 0.00 0.00 0.00 0.00 0.00 0.00 0.00 0.00 0.00 0.00 0.00 0.00 0.00 0.00 0.00 0.00 0.00 0.00 0.00 0.00 0.00 0.00 0.00 0.00 0.00 0.00 0.00 0.00 0.00 0.00 0.00 0.00 0.00 0.00 0.00 0.00 0.00 0.00 0.00 0.00 0.00 0.00
0.00 0.00 0.00 0.00 0.00 0.00 0.00 0.00 0.00 0.00 0.00 0.00 0.00 0.00 0.00 0.00 0.00 0.00 0.00 0.00 0.00 0.00 0.00 0.00 0.00 0.00 0.00 0.00 0.00 0.00 0.00 0.00 0.00 0.00 0.00 0.00 0.00 0.00 0.00 0.00 0.00 0.00 0.00 0.00
0.00 0.00 0.00 0.00 0.00 0.00 0.00 0.00 0.00 0.00 0.00 0.00 0.00 0.00 0.00 0.00 0.00 0.00 0.00 0.00 0.00 0.00 0.00 0.00 0.00 0.00 0.00 0.00 0.00 0.00 0.00 0.00 0.00 0.00 0.00 0.00 0.00 0.00 0.00 0.00 0.00 0.00 0.00 0.00
0.00 0.00 0.00 0.00 0.00 0.00 0.00 0.00 0.00 0.00 0.00 0.00 0.00 0.00 0.00 0.00 0.00 0.00 0.00 0.00 0.00 0.00 0.00 0.00 0.00 0.00 0.00 0.00 0.00 0.00 0.00 0.00 0.00 0.00 0.00 0.00 0.00 0.00 0.00 0.00 0.00 0.00 0.00 0.00
0.00 0.00 0.00 0.00 0.00 0.00 0.00 0.00 0.00 0.00 0.00 0.00 0.00 0.00 0.00 0.00 0.00 0.00 0.00 0.00 0.00 0.00 0.00 0.00 0.00 0.00 0.00 0.00 0.00 0.00 0.00 0.00 0.00 0.00 0.00 0.00 0.00 0.00 0.00 0.00 0.00 0.00 0.00 0.00
0.00 0.00 0.01 0.01 0.01 0.01 0.00 0.00 0.00 0.01 0.01 0.01 0.01 0.01 0.01 0.01 0.01 0.01 0.00 0.00 0.00 0.00 0.00 0.00 0.00 0.00 0.00 0.00 0.00 0.00 0.00 0.00 0.00 0.00 0.00 0.00 0.00 0.00 0.00 0.00 0.00 0.00 0.00 0.01
0.00 0.01 0.01 0.01 0.01 0.01 0.01 0.01 0.01 0.01 0.02 0.02 0.01 0.02 0.01 0.01 0.01 0.00 0.00 0.00 0.00 0.00 0.00 0.00 0.00 0.00 0.00 0.00 0.00 0.00 0.00 0.00 0.00 0.00 0.00 0.00 0.00 0.00 0.00 0.00 0.01 0.01 0.01 0.01
0.01 0.02 0.02 0.02 0.02 0.01 0.01 0.01 0.01 0.02 0.02 0.02 0.02 0.02 0.02 0.01 0.01 0.01 0.00 0.00 0.00 0.00 0.00 0.00 0.00 0.00 0.00 0.00 0.00 0.00 0.00 0.00 0.00 0.00 0.00 0.00 0.00 0.00 0.00 0.01 0.01 0.01 0.01 0.01
0.01 0.01 0.01 0.01 0.01 0.01 0.02 0.01 0.01 0.01 0.02 0.02 0.02 0.02 0.02 0.02 0.01 0.01 0.00 0.00 0.00 0.00 0.00 0.00 0.00 0.00 0.00 0.00 0.00 0.00 0.00 0.00 0.00 0.00 0.00 0.00 0.00 0.00 0.00 0.00 0.00 0.01 0.01 0.01
0.01 0.01 0.01 0.01 0.01 0.02 0.02 0.02 0.02 0.02 0.02 0.02 0.02 0.02 0.02 0.01 0.01 0.01 0.00 0.00 0.00 0.00 0.00 0.00 0.00 0.00 0.00 0.00 0.00 0.00 0.00 0.00 0.00 0.00 0.00 0.00 0.00 0.00 0.00 0.00 0.00 0.01 0.01 0.01
0.01 0.01 0.01 0.01 0.01 0.01 0.01 0.01 0.02 0.02 0.02 0.01 0.01 0.01 0.01 0.01 0.01 0.00 0.00 0.00 0.00 0.00 0.00 0.00 0.00 0.00 0.00 0.00 0.00 0.00 0.00 0.00 0.00 0.00 0.00 0.00 0.00 0.00 0.00 0.00 0.01 0.01 0.01 0.02
0.00 0.00 0.00 0.00 0.00 0.00 0.00 0.00 0.00 0.00 0.00 0.00 0.00 0.00 0.00 0.00 0.00 0.00 0.00 0.00 0.00 0.00 0.00 0.00 0.00 0.00 0.00 0.00 0.00 0.00 0.00 0.00 0.00 0.00 0.00 0.00 0.00 0.00 0.00 0.00 0.00 0.01 0.01 0.02
0.00 0.00 0.00 0.00 0.00 0.00 0.00 0.00 0.00 0.00 0.00 0.00 0.00 0.00 0.00 0.00 0.00 0.00 0.00 0.00 0.00 0.01 0.01 0.01 0.00 0.00 0.00 0.00 0.00 0.00 0.01 0.00 0.00 0.00 0.00 0.00 0.00 0.00 0.00 0.00 0.01 0.01 0.01 0.01
0.00 0.00 0.00 0.00 0.00 0.00 0.00 0.00 0.00 0.00 0.00 0.00 0.00 0.00 0.00 0.00 0.00 0.00 0.00 0.00 0.01 0.01 0.01 0.01 0.01 0.01 0.01 0.00 0.00 0.00 0.01 0.01 0.00 0.00 0.00 0.00 0.00 0.00 0.01 0.01 0.01 0.01 0.01 0.01
0.00 0.00 0.00 0.00 0.00 0.00 0.00 0.00 0.00 0.00 0.00 0.00 0.00 0.00 0.00 0.00 0.00 0.00 0.00 0.00 0.01 0.01 0.02 0.02 0.02 0.01 0.01 0.01 0.01 0.01 0.01 0.01 0.00 0.00 0.00 0.00 0.01 0.01 0.01 0.01 0.02 0.01 0.01 0.01
0.00 0.00 0.00 0.00 0.00 0.00 0.00 0.00 0.00 0.00 0.00 0.00 0.00 0.00 0.00 0.00 0.00 0.00 0.00 0.00 0.01 0.01 0.02 0.03 0.03 0.03 0.02 0.02 0.01 0.01 0.01 0.00 0.00 0.00 0.00 0.01 0.01 0.01 0.01 0.02 0.02 0.01 0.01 0.01
0.00 0.00 0.00 0.00 0.00 0.00 0.00 0.00 0.00 0.00 0.00 0.00 0.00 0.00 0.00 0.00 0.00 0.00 0.00 0.01 0.01 0.02 0.03 0.04 0.04 0.03 0.02 0.02 0.01 0.01 0.00 0.00 0.00 0.00 0.00 0.00 0.01 0.01 0.01 0.02 0.01 0.01 0.01 0.01
0.00 0.00 0.00 0.00 0.00 0.00 0.00 0.00 0.00 0.00 0.00 0.00 0.00 0.00 0.00 0.00 0.00 0.00 0.01 0.01 0.02 0.02 0.03 0.04 0.04 0.04 0.04 0.04 0.03 0.02 0.01 0.00 0.00 0.00 0.00 0.00 0.01 0.01 0.01 0.01 0.01 0.01 0.01 0.01
MSLP
1013.44 1013.65 1013.87 1014.09 1014.30 1014.45 1014.52 1014.47 1014.27 1013.95 1013.54 1013.08 1012.64 1012.30 1012.10 1012.08 1012.23 1012.53 1012.92 1013.34 1013.72 1014.00 1014.16 1014.19 1014.09 1013.91 1013.69 1013.46 1013.25 1013.09 1012.97 1012.88 1012.80 1012.71 1012.58 1012.42 1012.21 1011.97 1011.72 1011.47 1011.24 1011.02 1010.82 1010.64
1013.59 1013.74 1013.83 1013.88 1013.87 1013.82 1013.70 1013.51 1013.25 1012.94 1012.61 1012.29 1012.03 1011.87 1011.83 1011.92 1012.13 1012.44 1012.78 1013.12 1013.40 1013.60 1013.69 1013.68 1013.58 1013.43 1013.25 1013.08 1012.94 1012.83 1012.74 1012.66 1012.57 1012.45 1012.29 1012.07 1011.81 1011.52 1011.22 1010.93 1010.65 1010.40 1010.18 1009.99
1013.84 1013.91 1013.88 1013.76 1013.58 1013.35 1013.08 1012.78 1012.48 1012.19 1011.94 1011.74 1011.62 1011.60 1011.68 1011.84 1012.07 1012.34 1012.62 1012.86 1013.04 1013.15 1013.18 1013.13 1013.04 1012.93 1012.81 1012.71 1012.64 1012.58 1012.53 1012.47 1012.37 1012.23 1012.02 1011.75 1011.44 1011.10 1010.74 1010.40 1010.08 1009.80 1009.56 1009.35
1014.13 1014.09 1013.93 1013.67 1013.33 1012.96 1012.58 1012.21 1011.89 1011.63 1011.44 1011.34 1011.33 1011.40 1011.55 1011.76 1011.98 1012.21 1012.41 1012.57 1012.66 1012.69 1012.67 1012.60 1012.53 1012.45 1012.40 1012.37 1012.36 1012.36 1012.34 1012.29 1012.19 1012.02 1011.77 1011.46 1011.09 1010.69 1010.29 1009.90 1009.54 1009.23 1008.96 1008.74
1014.32 1014.15 1013.85 1013.46 1013.00 1012.52 1012.07 1011.66 1011.33 1011.10 1010.97 1010.95 1011.02 1011.16 1011.36 1011.58 1011.80 1011.99 1012.13 1012.22 1012.25 1012.23 1012.18 1012.12 1012.07 1012.04 1012.05 1012.07 1012.12 1012.15 1012.16 1012.12 1012.00 1011.80 1011.51 1011.15 1010.74 1010.30 1009.85 1009.42 1009.03 1008.69 1008.40 1008.16
1014.28 1013.97 1013.53 1013.02 1012.46 1011.91 1011.41 1010.99 1010.67 1010.47 1010.39 1010.43 1010.57 1010.77 1011.00 1011.24 1011.46 1011.63 1011.75 1011.80 1011.81 1011.78 1011.74 1011.70 1011.69 1011.70 1011.75 1011.82 1011.90 1011.96 1011.97 1011.91 1011.77 1011.54 1011.22 1010.82 1010.37 1009.89 1009.41 1008.96 1008.54 1008.17 1007.86 1007.61
1013.92 1013.46 1012.91 1012.30 1011.67 1011.07 1010.55 1010.12 1009.83 1009.66 1009.64 1009.72 1009.91 1010.15 1010.42 1010.69 1010.92 1011.11 1011.24 1011.31 1011.34 1011.34 1011.34 1011.34 1011.37 1011.43 1011.51 1011.60 1011.68 1011.73 1011.73 1011.64 1011.47 1011.20 1010.85 1010.42 1009.95 1009.45 1008.96 1008.49 1008.06 1007.68 1007.35 1007.09
1013.25 1012.67 1012.01 1011.32 1010.65 1010.03 1009.50 1009.09 1008.82 1008.69 1008.70 1008.82 1009.05 1009.33 1009.64 1009.94 1010.21 1010.44 1010.62 1010.75 1010.84 1010.90 1010.95 1011.01 1011.09 1011.18 1011.28 1011.37 1011.44 1011.46 1011.42 1011.30 1011.09 1010.79 1010.40 1009.96 1009.47 1008.97 1008.47 1008.01 1007.58 1007.20 1006.88 1006.60
1012.37 1011.69 1010.97 1010.24 1009.54 1008.91 1008.39 1007.99 1007.74 1007.63 1007.67 1007.82 1008.06 1008.37 1008.71 1009.06 1009.39 1009.68 1009.93 1010.14 1010.31 1010.46 1010.58 1010.71 1010.83 1010.94 1011.05 1011.12 1011.16 1011.14 1011.05 1010.88 1010.62 1010.29 1009.89 1009.43 1008.95 1008.46 1007.98 1007.52 1007.11 1006.75 1006.43 1006.17
1011.47 1010.74 1009.98 1009.23 1008.52 1007.90 1007.39 1007.00 1006.76 1006.66 1006.69 1006.84 1007.09 1007.41 1007.77 1008.15 1008.53 1008.89 1009.22 1009.51 1009.77 1010.01 1010.21 1010.39 1010.55 1010.68 1010.78 1010.83 1010.83 1010.76 1010.61 1010.39 1010.10 1009.75 1009.33 1008.88 1008.41 1007.94 1007.48 1007.06 1006.67 1006.33 1006.04 1005.79
1010.76 1010.02 1009.25 1008.50 1007.81 1007.19 1006.69 1006.30 1006.05 1005.93 1005.93 1006.05 1006.28 1006.58 1006.94 1007.33 1007.73 1008.14 1008.54 1008.91 1009.25 1009.55 1009.83 1010.06 1010.24 1010.38 1010.47 1010.49 1010.44 1010.33 1010.14 1009.89 1009.57 1009.19 1008.78 1008.34 1007.89 1007.45 1007.03 1006.63 1006.28 1005.96 1005.69 1005.46
1010.41 1009.69 1008.94 1008.21 1007.53 1006.93 1006.42 1006.02 1005.73 1005.57 1005.52 1005.58 1005.75 1006.00 1006.32 1006.69 1007.09 1007.51 1007.94 1008.35 1008.74 1009.10 1009.41 1009.68 1009.89 1010.03 1010.10 1010.10 1010.03 1009.88 1009.67 1009.39 1009.06 1008.68 1008.28 1007.86 1007.43 1007.02 1006.63 1006.26 1005.93 1005.64 1005.39 1005.17
1010.48 1009.79 1009.09 1008.39 1007.73 1007.13 1006.61 1006.18 1005.85 1005.62 1005.50 1005.48 1005.56 1005.73 1005.97 1006.28 1006.64 1007.03 1007.45 1007.86 1008.27 1008.64 1008.97 1009.25 1009.47 1009.61 1009.68 1009.67 1009.59 1009.43 1009.21 1008.93 1008.61 1008.25 1007.86 1007.46 1007.06 1006.66 1006.29 1005.94 1005.62 1005.34 1005.10 1004.89
1010.92 1010.28 1009.62 1008.95 1008.31 1007.72 1007.19 1006.73 1006.35 1006.05 1005.85 1005.73 1005.70 1005.76 1005.90 1006.12 1006.39 1006.72 1007.07 1007.45 1007.82 1008.18 1008.50 1008.77 1008.99 1009.13 1009.21 1009.21 1009.13 1008.99 1008.79 1008.53 1008.23 1007.89 1007.52 1007.14 1006.75 1006.37 1006.00 1005.65 1005.33 1005.05 1004.79 1004.58
1011.58 1010.99 1010.37 1009.75 1009.13 1008.55 1008.02 1007.54 1007.12 1006.76 1006.47 1006.26 1006.12 1006.07 1006.08 1006.17 1006.33 1006.55 1006.81 1007.10 1007.40 1007.70 1007.99 1008.24 1008.44 1008.59 1008.68 1008.69 1008.65 1008.54 1008.38 1008.16 1007.89 1007.58 1007.24 1006.88 1006.50 1006.11 1005.73 1005.37 1005.03 1004.71 1004.44 1004.20
1012.28 1011.74 1011.16 1010.58 1010.00 1009.45 1008.93 1008.44 1008.00 1007.61 1007.26 1006.97 1006.73 1006.56 1006.45 1006.40 1006.42 1006.50 1006.63 1006.80 1007.00 1007.22 1007.44 1007.65 1007.83 1007.98 1008.09 1008.14 1008.14 1008.08 1007.96 1007.80 1007.57 1007.30 1006.98 1006.63 1006.25 1005.85 1005.45 1005.06 1004.68 1004.33 1004.02 1003.75
1012.85 1012.35 1011.82 1011.29 1010.76 1010.25 1009.77 1009.31 1008.88 1008.48 1008.10 1007.75 1007.44 1007.16 1006.92 1006.74 1006.61 1006.53 1006.51 1006.54 1006.62 1006.73 1006.87 1007.02 1007.18 1007.32 1007.44 1007.53 1007.58 1007.57 1007.52 1007.40 1007.22 1006.99 1006.70 1006.35 1005.97 1005.56 1005.13 1004.70 1004.28 1003.89 1003.54 1003.23
1013.17 1012.72 1012.24 1011.77 1011.31 1010.87 1010.45 1010.05 1009.66 1009.28 1008.90 1008.52 1008.15 1007.79 1007.45 1007.13 1006.85 1006.62 1006.44 1006.31 1006.25 1006.25 1006.29 1006.38 1006.49 1006.62 1006.76 1006.87 1006.96 1007.01 1007.01 1006.95 1006.82 1006.62 1006.35 1006.01 1005.63 1005.20 1004.76 1004.30 1003.85 1003.43 1003.04 1002.70
1013.24 1012.83 1012.41 1012.00 1011.62 1011.27 1010.93 1010.61 1010.29 1009.96 1009.60 1009.22 1008.82 1008.39 1007.95 1007.52 1007.10 1006.71 1006.38 1006.10 1005.90 1005.77 1005.72 1005.73 1005.80 1005.91 1006.04 1006.19 1006.31 1006.41 1006.45 1006.43 1006.34 1006.17 1005.93 1005.61 1005.23 1004.81 1004.36 1003.89 1003.43 1002.99 1002.59 1002.24
1013.12 1012.75 1012.39 1012.06 1011.76 1011.49 1011.25 1011.01 1010.76 1010.49 1010.17 1009.80 1009.37 1008.90 1008.38 1007.84 1007.30 1006.78 1006.30 1005.89 1005.55 1005.31 1005.16 1005.10 1005.12 1005.21 1005.34 1005.50 1005.65 1005.77 1005.86 1005.87 1005.82 1005.68 1005.47 1005.17 1004.82 1004.41 1003.97 1003.52 1003.08 1002.65 1002.26 1001.90
1012.93 1012.59 1012.28 1012.02 1011.79 1011.61 1011.44 1011.28 1011.10 1010.87 1010.58 1010.22 1009.78 1009.25 1008.67 1008.04 1007.40 1006.76 1006.17 1005.64 1005.20 1004.86 1004.63 1004.51 1004.49 1004.55 1004.68 1004.84 1005.01 1005.16 1005.27 1005.32 1005.29 1005.19 1005.00 1004.74 1004.42 1004.05 1003.66 1003.25 1002.84 1002.45 1002.09 1001.76
1012.76 1012.45 1012.18 1011.96 1011.79 1011.66 1011.55 1011.44 1011.29 1011.09 1010.82 1010.45 1009.98 1009.42 1008.78 1008.08 1007.35 1006.63 1005.95 1005.33 1004.81 1004.41 1004.13 1003.97 1003.92 1003.97 1004.09 1004.26 1004.44 1004.61 1004.74 1004.81 1004.81 1004.74 1004.59 1004.37 1004.10 1003.79 1003.45 1003.10 1002.76 1002.43 1002.12 1001.83
1012.66 1012.37 1012.12 1011.92 1011.78 1011.67 1011.58 1011.48 1011.34 1011.14 1010.85 1010.46 1009.95 1009.35 1008.66 1007.91 1007.13 1006.35 1005.61 1004.95 1004.40 1003.96 1003.66 1003.48 1003.43 1003.48 1003.61 1003.79 1003.98 1004.17 1004.31 1004.41 1004.44 1004.39 1004.28 1004.11 1003.90 1003.64 1003.37 1003.10 1002.83 1002.57 1002.32 1002.09
1012.64 1012.34 1012.09 1011.89 1011.74 1011.63 1011.52 1011.39 1011.22 1010.99 1010.66 1010.23 1009.68 1009.04 1008.31 1007.53 1006.72 1005.93 1005.18 1004.51 1003.95 1003.53 1003.24 1003.08 1003.05 1003.12 1003.26 1003.46 1003.67 1003.87 1004.04 1004.15 1004.20 1004.19 1004.12 1003.99 1003.83 1003.64 1003.43 1003.23 1003.03 1002.84 1002.66 1002.48
1012.62 1012.31 1012.04 1011.82 1011.64 1011.48 1011.33 1011.15 1010.92 1010.63 1010.25 1009.77 1009.18 1008.51 1007.77 1006.97 1006.17 1005.39 1004.67 1004.04 1003.52 1003.14 1002.89 1002.78 1002.79 1002.90 1003.08 1003.30 1003.53 1003.75 1003.93 1004.06 1004.14 1004.15 1004.10 1004.02 1003.90 1003.76 1003.61 1003.47 1003.33 1003.20 1003.07 1002.93
1012.52 1012.19 1011.90 1011.64 1011.41 1011.20 1010.98 1010.74 1010.44 1010.09 1009.65 1009.12 1008.51 1007.82 1007.08 1006.31 1005.55 1004.82 1004.16 1003.59 1003.15 1002.84 1002.67 1002.62 1002.69 1002.84 1003.06 1003.31 1003.57 1003.81 1004.01 1004.15 1004.24 1004.27 1004.24 1004.18 1004.09 1003.99 1003.88 1003.78 1003.68 1003.59 1003.49 1003.39
1012.28 1011.93 1011.61 1011.31 1011.03 1010.76 1010.48 1010.17 1009.81 1009.40 1008.92 1008.37 1007.75 1007.07 1006.37 1005.65 1004.95 1004.30 1003.73 1003.26 1002.92 1002.70 1002.61 1002.63 1002.76 1002.97 1003.23 1003.51 1003.79 1004.04 1004.24 1004.40 1004.49 1004.53 1004.52 1004.47 1004.39 1004.31 1004.22 1004.14 1004.06 1003.98 1003.89 1003.80
Thickness
5725 5730 5731 5730 5731 5723 5714 5708 5698 5706 5706 5718 5721 5720 5718 5714 5707 5701 5696 5692 5687 5681 5676 5671 5667 5663 5659 5654 5650 5645 5639 5633 5629 5624 5619 5614 5609 5605 5600 5596 5592 5588 5584 5580
5726 5734 5729 5726 5731 5729 5724 5720 5712 5713 5712 5725 5724 5719 5714 5709 5702 5697 5694 5690 5686 5680 5674 5669 5664 5660 5655 5650 5646 5640 5634 5629 5625 5619 5614 5609 5605 5600 5595 5591 5586 5582 5577 5574
5710 5721 5725 5715 5730 5731 5729 5727 5719 5712 5719 5725 5719 5715 5711 5706 5700 5697 5693 5688 5683 5678 5672 5667 5662 5656 5651 5646 5641 5635 5630 5625 5620 5615 5610 5605 5600 5595 5590 5585 5581 5576 5572 5568
5703 5712 5702 5719 5740 5738 5733 5731 5726 5725 5724 5720 5719 5717 5712 5707 5700 5696 5692 5687 5681 5676 5670 5665 5659 5653 5647 5642 5636 5631 5626 5621 5616 5610 5605 5600 5595 5590 5585 5580 5575 5570 5566 5562
5693 5697 5706 5725 5738 5735 5728 5726 5731 5724 5723 5718 5712 5710 5706 5707 5701 5697 5693 5687 5681 5676 5669 5663 5656 5650 5643 5638 5632 5627 5622 5617 5612 5606 5601 5595 5590 5585 5580 5574 5570 5565 5561 5556
5694 5696 5695 5721 5744 5745 5733 5718 5732 5725 5718 5710 5705 5692 5698 5710 5702 5696 5691 5685 5680 5673 5666 5659 5654 5646 5639 5634 5628 5623 5619 5614 5608 5602 5596 5591 5586 5581 5576 5570 5565 5560 5556 5551
5694 5694 5704 5734 5743 5738 5710 5712 5737 5728 5719 5708 5704 5707 5710 5711 5703 5697 5691 5685 5678 5670 5663 5657 5651 5643 5636 5631 5626 5622 5616 5610 5605 5599 5592 5587 5582 5576 5571 5565 5560 5555 5550 5546
5688 5691 5702 5741 5735 5725 5727 5742 5740 5731 5723 5714 5713 5712 5708 5705 5700 5694 5688 5682 5675 5666 5660 5655 5647 5639 5633 5629 5625 5619 5613 5607 5601 5595 5589 5585 5578 5572 5567 5561 5556 5551 5545 5541
5704 5712 5732 5737 5739 5745 5743 5739 5738 5733 5728 5720 5714 5709 5705 5701 5695 5690 5685 5679 5672 5664 5657 5651 5644 5637 5631 5628 5622 5615 5609 5603 5598 5592 5586 5580 5573 5568 5563 5558 5551 5546 5541 5536
5707 5721 5733 5736 5739 5743 5742 5740 5742 5738 5732 5723 5714 5711 5704 5698 5692 5686 5681 5675 5667 5659 5652 5647 5642 5635 5630 5625 5618 5611 5605 5599 5593 5587 5582 5577 5571 5565 5559 5554 5549 5544 5538 5533
5706 5718 5727 5737 5739 5741 5741 5739 5737 5735 5730 5725 5718 5712 5705 5698 5692 5685 5678 5671 5663 5656 5650 5645 5639 5633 5628 5621 5614 5607 5601 5595 5589 5584 5578 5573 5568 5562 5557 5552 5545 5540 5536 5530
5701 5717 5714 5720 5730 5733 5733 5733 5732 5728 5724 5721 5717 5712 5705 5698 5691 5683 5674 5666 5658 5652 5647 5642 5635 5629 5624 5618 5610 5603 5596 5591 5585 5580 5575 5570 5565 5561 5557 5551 5545 5539 5532 5526
5704 5714 5712 5714 5718 5722 5723 5725 5726 5723 5720 5716 5713 5709 5702 5694 5685 5677 5669 5662 5656 5650 5645 5639 5632 5626 5620 5613 5605 5598 5592 5586 5581 5576 5571 5566 5562 5556 5554 5552 5546 5540 5534 5528
5698 5702 5698 5699 5701 5707 5711 5714 5715 5713 5711 5708 5704 5699 5693 5685 5677 5670 5665 5660 5654 5646 5640 5634 5627 5622 5616 5608 5600 5594 5587 5582 5577 5572 5567 5563 5558 5554 5549 5545 5542 5540 5535 5529
5682 5684 5681 5684 5689 5693 5696 5699 5698 5695 5695 5693 5690 5686 5680 5675 5669 5664 5659 5653 5646 5639 5634 5628 5622 5617 5611 5602 5595 5589 5583 5578 5573 5569 5565 5561 5556 5552 5548 5543 5539 5536 5533 5530
5666 5670 5671 5672 5673 5675 5678 5678 5677 5676 5678 5677 5675 5672 5669 5664 5659 5655 5650 5644 5637 5633 5628 5622 5617 5612 5605 5597 5590 5584 5578 5574 5571 5567 5563 5559 5555 5551 5547 5543 5538 5535 5532 5529
5652 5650 5651 5651 5653 5655 5657 5658 5658 5659 5661 5661 5660 5658 5655 5652 5647 5644 5640 5635 5630 5627 5622 5617 5613 5607 5599 5592 5585 5579 5574 5569 5567 5563 5560 5557 5554 5550 5546 5542 5538 5535 5532 5529
5636 5635 5635 5636 5637 5639 5642 5643 5644 5644 5644 5644 5645 5643 5640 5637 5634 5632 5629 5625 5621 5618 5616 5612 5607 5601 5594 5587 5580 5573 5568 5564 5561 5559 5557 5555 5552 5548 5544 5541 5538 5535 5533 5530
5624 5623 5624 5625 5625 5626 5626 5626 5627 5628 5629 5629 5628 5626 5624 5622 5620 5618 5616 5612 5609 5609 5610 5606 5600 5594 5588 5581 5575 5568 5563 5560 5558 5556 5555 5552 5551 5547 5543 5540 5537 5535 5532 5529
5609 5610 5610 5610 5610 5610 5610 5610 5611 5611 5612 5611 5610 5610 5609 5608 5607 5606 5603 5601 5602 5603 5602 5597 5592 5586 5581 5575 5569 5563 5559 5556 5554 5553 5552 5550 5548 5545 5542 5539 5536 5534 5531 5528
5593 5593 5593 5593 5593 5593 5593 5592 5592 5592 5593 5592 5592 5591 5591 5592 5592 5591 5590 5592 5597 5593 5589 5586 5582 5578 5573 5568 5562 5557 5554 5552 5550 5549 5548 5546 5544 5542 5540 5537 5535 5532 5530 5527
5576 5575 5575 5575 5575 5575 5575 5574 5574 5575 5575 5575 5575 5575 5575 5575 5576 5577 5578 5580 5584 5581 5578 5576 5573 5570 5565 5560 5555 5551 5549 5547 5546 5545 5543 5542 5541 5539 5537 5535 5533 5530 5528 5527
5558 5558 5557 5557 5557 5556 5557 5558 5558 5558 5557 5557 5557 5556 5556 5557 5558 5559 5564 5569 5568 5567 5566 5566 5563 5560 5556 5552 5548 5545 5544 5542 5541 5540 5539 5538 5537 5535 5533 5532 5530 5528 5526 5525
5542 5541 5541 5540 5539 5539 5540 5541 5541 5540 5540 5540 5540 5540 5539 5541 5545 5546 5548 5551 5553 5553 5554 5554 5551 5549 5546 5543 5540 5538 5537 5536 5535 5534 5533 5533 5532 5531 5530 5528 5527 5525 5524 5523
5526 5524 5524 5523 5522 5523 5523 5522 5521 5522 5522 5523 5524 5524 5524 5523 5525 5530 5533 5536 5538 5539 5541 5541 5539 5538 5535 5534 5531 5530 5529 5528 5528 5527 5527 5527 5527 5526 5525 5524 5523 5522 5521 5520
5509 5508 5508 5506 5505 5505 5505 5503 5502 5503 5503 5504 5505 5507 5508 5509 5510 5513 5516 5520 5523 5524 5526 5527 5527 5526 5525 5524 5523 5521 5520 5520 5520 5520 5520 5520 5520 5520 5520 5519 5519 5517 5516 5516
5494 5493 5491 5492 5493 5492 5490 5488 5487 5488 5487 5486 5487 5489 5490 5492 5494 5497 5500 5504 5507 5510 5512 5514 5514 5514 5514 5514 5513 5512 5511 5511 5512 5512 5512 5513 5513 5514 5514 5514 5513 5513 5512 5513